CFG8PR LEPA-EDDF

Flight info

Callsign CFG8PR
Flight time 1h 47m
Altitude 32000
Route MEROS DCT LAPIT DCT CHELY DCT LUMAS DCT MAXIR DCT LUSOL DCT BODRU DCT OKTET DCT IRMAR DCT KINES DCT VANAS DCT ESOKO DCT GODRA DCT LADOL T163 EMPAX EMPAX5B
Aircraft A321/M-SDE3FGHIRWY/LB1

Departure

Time 2026-05-04 14:10
Airport Palma de Mallorca Airport (LEPA)

Arrival

Time 2026-05-04 15:57
Airport Frankfurt Main Airport (EDDF)
Time Latitude Longitude Altitude Speed Heading
2026-05-04 13:35 39.55002 2.73440 37 ft 0 kts 164°
2026-05-04 13:59 39.55003 2.73439 38 ft 1 kts 164°
2026-05-04 14:00 39.55027 2.73431 37 ft 4 kts 164°
2026-05-04 14:00 39.55070 2.73410 35 ft 4 kts 127°
2026-05-04 14:00 39.55077 2.73381 35 ft 4 kts 68°
2026-05-04 14:01 39.55065 2.73352 36 ft 4 kts 63°
2026-05-04 14:01 39.55055 2.73322 36 ft 2 kts 69°
2026-05-04 14:01 39.55050 2.73306 37 ft 0 kts 69°
2026-05-04 14:03 39.55056 2.73326 36 ft 6 kts 68°
2026-05-04 14:03 39.55083 2.73391 37 ft 10 kts 59°
2026-05-04 14:03 39.55117 2.73465 38 ft 9 kts 59°
2026-05-04 14:04 39.55189 2.73603 38 ft 10 kts 24°
2026-05-04 14:04 39.55257 2.73573 38 ft 11 kts 329°
2026-05-04 14:04 39.55324 2.73520 38 ft 11 kts 328°
2026-05-04 14:05 39.55452 2.73468 37 ft 10 kts 42°
2026-05-04 14:05 39.55496 2.73556 38 ft 10 kts 56°
2026-05-04 14:05 39.55559 2.73547 38 ft 12 kts 329°
2026-05-04 14:06 39.55631 2.73505 36 ft 11 kts 356°
2026-05-04 14:06 39.55685 2.73564 38 ft 11 kts 58°
2026-05-04 14:06 39.55735 2.73670 38 ft 18 kts 58°
2026-05-04 14:06 39.55809 2.73825 38 ft 21 kts 58°
2026-05-04 14:07 39.55880 2.73978 38 ft 19 kts 58°
2026-05-04 14:07 39.55945 2.74115 38 ft 17 kts 58°
2026-05-04 14:07 39.56003 2.74238 38 ft 15 kts 58°
2026-05-04 14:07 39.56056 2.74351 38 ft 14 kts 58°
2026-05-04 14:08 39.56115 2.74444 38 ft 13 kts 28°
2026-05-04 14:08 39.56199 2.74423 38 ft 13 kts 330°
2026-05-04 14:08 39.56251 2.74341 37 ft 12 kts 276°
2026-05-04 14:08 39.56219 2.74249 38 ft 14 kts 238°
2026-05-04 14:09 39.55778 2.73316 37 ft 116 kts 238°
2026-05-04 14:09 39.55281 2.72259 41 ft 157 kts 239°
2026-05-04 14:10 39.54103 2.69726 1058 ft 166 kts 237°
2026-05-04 14:10 39.53504 2.68454 1685 ft 165 kts 238°
2026-05-04 14:10 39.52873 2.67122 1882 ft 183 kts 238°
2026-05-04 14:10 39.52172 2.65650 2135 ft 198 kts 237°
2026-05-04 14:11 39.51443 2.64127 2554 ft 204 kts 238°
2026-05-04 14:11 39.49881 2.61071 3710 ft 206 kts 225°
2026-05-04 14:11 39.48619 2.60002 3907 ft 230 kts 208°
2026-05-04 14:12 39.47127 2.59037 4304 ft 246 kts 208°
2026-05-04 14:12 39.45585 2.58039 4990 ft 250 kts 208°
2026-05-04 14:12 39.42189 2.57156 6380 ft 265 kts 169°
2026-05-04 14:13 39.40532 2.58277 7022 ft 278 kts 141°
2026-05-04 14:13 39.39461 2.60420 7647 ft 293 kts 110°
2026-05-04 14:13 39.39308 2.63084 8279 ft 304 kts 89°
2026-05-04 14:13 39.39460 2.65825 8944 ft 307 kts 88°
2026-05-04 14:14 39.39634 2.68594 9576 ft 311 kts 88°
2026-05-04 14:14 39.39985 2.74332 10373 ft 339 kts 88°
2026-05-04 14:14 39.40164 2.77473 10500 ft 360 kts 88°
2026-05-04 14:15 39.40526 2.84094 11473 ft 377 kts 88°
2026-05-04 14:15 39.40902 2.90933 12666 ft 384 kts 88°
2026-05-04 14:16 39.41281 2.97881 13863 ft 391 kts 88°
2026-05-04 14:16 39.41469 3.01410 14372 ft 395 kts 88°
2026-05-04 14:17 39.41851 3.08577 15323 ft 404 kts 88°
2026-05-04 14:17 39.42042 3.12231 15796 ft 409 kts 88°
2026-05-04 14:17 39.42421 3.19647 16745 ft 418 kts 88°
2026-05-04 14:18 39.42773 3.23402 17189 ft 424 kts 78°
2026-05-04 14:18 39.44955 3.30511 18070 ft 431 kts 57°
2026-05-04 14:19 39.48085 3.37226 18861 ft 439 kts 58°
2026-05-04 14:19 39.49652 3.40632 19245 ft 442 kts 58°
2026-05-04 14:19 39.51228 3.44078 19625 ft 446 kts 58°
2026-05-04 14:19 39.52810 3.47548 20004 ft 449 kts 58°
2026-05-04 14:20 39.53863 3.49857 20279 ft 451 kts 58°
2026-05-04 14:20 39.55466 3.53368 20682 ft 454 kts 58°
2026-05-04 14:20 39.57082 3.56902 21059 ft 457 kts 58°
2026-05-04 14:21 39.60350 3.64052 21803 ft 464 kts 59°
2026-05-04 14:21 39.62000 3.67669 22155 ft 467 kts 59°
2026-05-04 14:21 39.63659 3.71312 22511 ft 471 kts 59°
2026-05-04 14:21 39.65329 3.74986 22862 ft 474 kts 59°
2026-05-04 14:22 39.67011 3.78687 23217 ft 478 kts 59°
2026-05-04 14:22 39.68702 3.82411 23554 ft 481 kts 59°
2026-05-04 14:22 39.70404 3.86165 23835 ft 484 kts 59°
2026-05-04 14:22 39.72117 3.89945 24145 ft 487 kts 59°
2026-05-04 14:23 39.75560 3.97571 24779 ft 491 kts 59°
2026-05-04 14:23 39.77286 4.01408 25081 ft 493 kts 59°
2026-05-04 14:23 39.79023 4.05271 25378 ft 496 kts 60°
2026-05-04 14:24 39.80764 4.09147 25667 ft 498 kts 60°
2026-05-04 14:24 39.82621 4.12962 25948 ft 501 kts 52°
2026-05-04 14:24 39.84911 4.16381 26219 ft 501 kts 42°
2026-05-04 14:24 39.87592 4.19271 26501 ft 500 kts 31°
2026-05-04 14:25 39.90581 4.21559 26766 ft 497 kts 21°
2026-05-04 14:25 39.97110 4.24153 27334 ft 489 kts
2026-05-04 14:25 40.00421 4.24922 27576 ft 492 kts
2026-05-04 14:26 40.03799 4.25711 27832 ft 494 kts
2026-05-04 14:26 40.07187 4.26508 28073 ft 496 kts
2026-05-04 14:26 40.10593 4.27310 28309 ft 499 kts
2026-05-04 14:26 40.14021 4.28117 28555 ft 501 kts
2026-05-04 14:27 40.17464 4.28927 28790 ft 503 kts
2026-05-04 14:27 40.20919 4.29741 28995 ft 506 kts
2026-05-04 14:27 40.24394 4.30562 29217 ft 509 kts
2026-05-04 14:27 40.27880 4.31390 29444 ft 511 kts
2026-05-04 14:28 40.31385 4.32229 29670 ft 513 kts
2026-05-04 14:28 40.34907 4.33075 29967 ft 514 kts
2026-05-04 14:28 40.38420 4.33916 30263 ft 513 kts
2026-05-04 14:28 40.41941 4.34751 30578 ft 513 kts
2026-05-04 14:29 40.48967 4.36412 31174 ft 512 kts
2026-05-04 14:29 40.55965 4.38073 31814 ft 510 kts
2026-05-04 14:30 40.59459 4.38907 32135 ft 509 kts
2026-05-04 14:30 40.62941 4.39740 32453 ft 508 kts
2026-05-04 14:30 40.69873 4.41404 33099 ft 505 kts
2026-05-04 14:31 40.73334 4.42234 33421 ft 504 kts
2026-05-04 14:31 40.80179 4.43878 33926 ft 502 kts
2026-05-04 14:32 40.87022 4.45532 33950 ft 498 kts
2026-05-04 14:32 40.93832 4.47192 33953 ft 498 kts
2026-05-04 14:33 41.00644 4.48841 33950 ft 498 kts
2026-05-04 14:33 41.07466 4.50485 33947 ft 499 kts
2026-05-04 14:34 41.14308 4.52148 33943 ft 501 kts
2026-05-04 14:34 41.21162 4.53815 33946 ft 501 kts
2026-05-04 14:35 41.28016 4.55493 33965 ft 501 kts
2026-05-04 14:35 41.34881 4.57192 33960 ft 502 kts
2026-05-04 14:36 41.41704 4.58870 33951 ft 501 kts
2026-05-04 14:36 41.48564 4.60550 33973 ft 501 kts
2026-05-04 14:37 41.55416 4.62233 33969 ft 501 kts
2026-05-04 14:37 41.62264 4.63927 33963 ft 500 kts
2026-05-04 14:38 41.69106 4.65627 33972 ft 500 kts
2026-05-04 14:38 41.75741 4.68671 33965 ft 510 kts 24°
2026-05-04 14:39 41.81874 4.73524 33966 ft 512 kts 28°
2026-05-04 14:39 41.87979 4.78441 33957 ft 512 kts 28°
2026-05-04 14:40 41.97136 4.85813 33963 ft 511 kts 27°
2026-05-04 14:40 42.03188 4.90713 33960 ft 511 kts 28°
2026-05-04 14:41 42.09274 4.95651 33958 ft 510 kts 27°
2026-05-04 14:42 42.21420 5.05518 33976 ft 509 kts 27°
2026-05-04 14:42 42.27466 5.10458 33974 ft 508 kts 27°
2026-05-04 14:43 42.33513 5.15414 33995 ft 508 kts 27°
2026-05-04 14:43 42.39551 5.20368 33975 ft 507 kts 27°
2026-05-04 14:44 42.45592 5.25328 33966 ft 506 kts 27°
2026-05-04 14:44 42.51620 5.30283 33991 ft 507 kts 27°
2026-05-04 14:45 42.57638 5.35254 33982 ft 506 kts 27°
2026-05-04 14:45 42.63656 5.40244 33994 ft 507 kts 27°
2026-05-04 14:46 42.69631 5.45205 33992 ft 506 kts 27°
2026-05-04 14:46 42.75636 5.50193 33999 ft 506 kts 27°
2026-05-04 14:47 42.81681 5.55229 33990 ft 505 kts 27°
2026-05-04 14:47 42.87634 5.60202 33995 ft 505 kts 27°
2026-05-04 14:48 42.93627 5.65220 34025 ft 505 kts 27°
2026-05-04 14:48 42.99607 5.70241 34024 ft 504 kts 27°
2026-05-04 14:49 43.05582 5.75266 34007 ft 504 kts 27°
2026-05-04 14:49 43.11559 5.80297 34035 ft 504 kts 27°
2026-05-04 14:50 43.17534 5.85339 34040 ft 503 kts 27°
2026-05-04 14:50 43.23489 5.90388 34036 ft 503 kts 27°
2026-05-04 14:51 43.29435 5.95433 34057 ft 502 kts 28°
2026-05-04 14:51 43.35351 6.00431 34058 ft 500 kts 24°
2026-05-04 14:52 43.41726 6.03839 34051 ft 486 kts
2026-05-04 14:52 43.48344 6.04935 34059 ft 477 kts 357°
2026-05-04 14:53 43.54967 6.05596 34044 ft 477 kts 358°
2026-05-04 14:53 43.61594 6.06275 34041 ft 478 kts 358°
2026-05-04 14:54 43.68225 6.06950 34051 ft 478 kts 358°
2026-05-04 14:54 43.74860 6.07762 34041 ft 483 kts
2026-05-04 14:55 43.81315 6.10675 34037 ft 494 kts 22°
2026-05-04 14:55 43.87471 6.14909 34055 ft 493 kts 22°
2026-05-04 14:56 43.93630 6.19094 34062 ft 492 kts 21°
2026-05-04 14:56 43.99778 6.23279 34060 ft 492 kts 22°
2026-05-04 14:57 44.05921 6.27480 34081 ft 492 kts 22°
2026-05-04 14:57 44.12052 6.31699 34067 ft 492 kts 22°
2026-05-04 14:58 44.18176 6.35928 34060 ft 491 kts 22°
2026-05-04 14:58 44.23261 6.39434 34072 ft 491 kts 22°
2026-05-04 14:59 44.30410 6.44367 34087 ft 491 kts 22°
2026-05-04 15:00 44.39572 6.50723 34077 ft 489 kts 22°
2026-05-04 15:00 44.45620 6.54944 34107 ft 488 kts 22°
2026-05-04 15:01 44.54745 6.61313 34114 ft 488 kts 22°
2026-05-04 15:01 44.60812 6.65555 34113 ft 487 kts 22°
2026-05-04 15:02 44.66887 6.69798 34125 ft 487 kts 22°
2026-05-04 15:02 44.72956 6.74071 34122 ft 487 kts 22°
2026-05-04 15:03 44.79180 6.77633 34122 ft 479 kts
2026-05-04 15:03 44.85676 6.78678 34141 ft 464 kts 352°
2026-05-04 15:04 44.92110 6.78233 34148 ft 462 kts 351°
2026-05-04 15:04 44.98528 6.77808 34140 ft 461 kts 351°
2026-05-04 15:05 45.04946 6.77395 34155 ft 462 kts 352°
2026-05-04 15:05 45.11374 6.76982 34156 ft 462 kts 352°
2026-05-04 15:06 45.16721 6.76633 34134 ft 462 kts 352°
2026-05-04 15:07 45.26352 6.75986 34133 ft 462 kts 352°
2026-05-04 15:07 45.32776 6.75558 34126 ft 462 kts 352°
2026-05-04 15:08 45.39200 6.75118 34130 ft 462 kts 352°
2026-05-04 15:08 45.45650 6.75951 34122 ft 472 kts 11°
2026-05-04 15:09 45.51725 6.79652 34111 ft 479 kts 27°
2026-05-04 15:09 45.57453 6.84417 34120 ft 480 kts 28°
2026-05-04 15:10 45.66105 6.91601 34145 ft 480 kts 28°
2026-05-04 15:11 45.74781 6.98844 34139 ft 479 kts 28°
2026-05-04 15:11 45.80501 7.03638 34146 ft 480 kts 28°
2026-05-04 15:12 45.86257 7.08474 34146 ft 480 kts 28°
2026-05-04 15:12 45.92019 7.13315 34124 ft 479 kts 29°
2026-05-04 15:13 45.97766 7.18157 34093 ft 479 kts 29°
2026-05-04 15:13 46.03508 7.23019 34083 ft 479 kts 29°
2026-05-04 15:14 46.09249 7.27893 34077 ft 479 kts 29°
2026-05-04 15:14 46.14992 7.32783 34081 ft 478 kts 30°
2026-05-04 15:15 46.20712 7.37672 34072 ft 478 kts 30°
2026-05-04 15:15 46.26432 7.42570 34072 ft 478 kts 30°
2026-05-04 15:16 46.35010 7.49916 34070 ft 477 kts 30°
2026-05-04 15:17 46.43584 7.57288 34062 ft 477 kts 30°
2026-05-04 15:17 46.52099 7.64658 34042 ft 477 kts 30°
2026-05-04 15:18 46.57815 7.69605 34031 ft 477 kts 30°
2026-05-04 15:19 46.66512 7.76642 34029 ft 476 kts 26°
2026-05-04 15:19 46.75375 7.83214 34026 ft 476 kts 26°
2026-05-04 15:20 46.81244 7.87689 34018 ft 476 kts 27°
2026-05-04 15:20 46.87097 7.92242 34017 ft 476 kts 27°
2026-05-04 15:21 46.92944 7.96804 34019 ft 476 kts 27°
2026-05-04 15:22 47.01667 8.03579 33981 ft 475 kts 27°
2026-05-04 15:22 47.10424 8.10384 34008 ft 474 kts 27°
2026-05-04 15:23 47.16250 8.14947 33976 ft 475 kts 27°
2026-05-04 15:23 47.22084 8.19522 33970 ft 475 kts 27°
2026-05-04 15:24 47.33755 8.28718 33985 ft 476 kts 27°
2026-05-04 15:25 47.39603 8.33334 33968 ft 476 kts 27°
2026-05-04 15:26 47.48338 8.40254 33997 ft 474 kts 27°
2026-05-04 15:26 47.57050 8.47180 33989 ft 473 kts 27°
2026-05-04 15:27 47.65705 8.54093 33985 ft 473 kts 27°
2026-05-04 15:28 47.74393 8.61050 33975 ft 473 kts 27°
2026-05-04 15:29 47.83075 8.68029 33971 ft 473 kts 27°
2026-05-04 15:30 48.03339 8.84458 33970 ft 473 kts 27°
2026-05-04 15:31 48.11977 8.91486 33972 ft 473 kts 27°
2026-05-04 15:32 48.21279 8.96053 33651 ft 466 kts
2026-05-04 15:32 48.27690 8.96991 33108 ft 467 kts
2026-05-04 15:33 48.34138 8.97965 31979 ft 463 kts
2026-05-04 15:34 48.43702 8.99441 30271 ft 458 kts
2026-05-04 15:34 48.46872 8.99927 29663 ft 457 kts
2026-05-04 15:34 48.53134 9.00888 28633 ft 448 kts
2026-05-04 15:35 48.59284 9.01822 27612 ft 441 kts
2026-05-04 15:35 48.62319 9.02281 27109 ft 437 kts
2026-05-04 15:35 48.65338 9.02813 26622 ft 434 kts
2026-05-04 15:36 48.71247 9.04201 25673 ft 427 kts
2026-05-04 15:36 48.74160 9.04966 25224 ft 423 kts
2026-05-04 15:36 48.77051 9.05723 24767 ft 419 kts
2026-05-04 15:37 48.79915 9.06449 24324 ft 416 kts
2026-05-04 15:37 48.82757 9.07144 23880 ft 412 kts
2026-05-04 15:37 48.85579 9.07821 23413 ft 409 kts
2026-05-04 15:37 48.88380 9.08483 22942 ft 405 kts
2026-05-04 15:38 48.91153 9.09023 22503 ft 399 kts
2026-05-04 15:38 48.93900 9.09435 22072 ft 394 kts
2026-05-04 15:38 48.96623 9.09774 21636 ft 390 kts
2026-05-04 15:38 48.99317 9.10089 21202 ft 387 kts
2026-05-04 15:39 49.01995 9.10415 20764 ft 385 kts
2026-05-04 15:39 49.04662 9.10761 20270 ft 385 kts
2026-05-04 15:39 49.09992 9.11509 19312 ft 384 kts
2026-05-04 15:40 49.12647 9.11895 18836 ft 383 kts
2026-05-04 15:40 49.15265 9.12277 18358 ft 383 kts
2026-05-04 15:40 49.17916 9.12662 17847 ft 382 kts
2026-05-04 15:40 49.20556 9.13044 17370 ft 380 kts
2026-05-04 15:41 49.23180 9.13423 16895 ft 378 kts
2026-05-04 15:41 49.25788 9.13798 16429 ft 375 kts
2026-05-04 15:41 49.28378 9.14217 16037 ft 372 kts
2026-05-04 15:41 49.30871 9.15060 15826 ft 364 kts 11°
2026-05-04 15:42 49.33369 9.15945 14998 ft 374 kts 11°
2026-05-04 15:42 49.35921 9.16842 14439 ft 376 kts 11°
2026-05-04 15:42 49.38467 9.17737 14003 ft 373 kts 11°
2026-05-04 15:42 49.40999 9.18628 13491 ft 372 kts 11°
2026-05-04 15:43 49.43509 9.19515 12935 ft 371 kts 11°
2026-05-04 15:43 49.46016 9.20407 12537 ft 367 kts 12°
2026-05-04 15:43 49.48490 9.21293 12065 ft 364 kts 12°
2026-05-04 15:43 49.50951 9.22174 11586 ft 363 kts 12°
2026-05-04 15:44 49.53412 9.23051 11127 ft 361 kts 12°
2026-05-04 15:44 49.55847 9.23916 10805 ft 355 kts 12°
2026-05-04 15:44 49.58214 9.24759 10668 ft 344 kts 12°
2026-05-04 15:44 49.60521 9.25581 10541 ft 338 kts 12°
2026-05-04 15:45 49.62810 9.26398 10401 ft 337 kts 12°
2026-05-04 15:45 49.65087 9.27213 10270 ft 335 kts 12°
2026-05-04 15:45 49.67318 9.28014 10142 ft 323 kts 12°
2026-05-04 15:45 49.69479 9.28791 9959 ft 314 kts 13°
2026-05-04 15:46 49.71589 9.29553 9706 ft 309 kts 13°
2026-05-04 15:46 49.73679 9.30307 9559 ft 308 kts 13°
2026-05-04 15:46 49.75768 9.31044 9422 ft 307 kts
2026-05-04 15:46 49.77879 9.31075 9295 ft 303 kts 347°
2026-05-04 15:47 49.79831 9.29957 9160 ft 298 kts 328°
2026-05-04 15:47 49.81649 9.28412 9023 ft 299 kts 328°
2026-05-04 15:47 49.83464 9.26863 8979 ft 298 kts 328°
2026-05-04 15:47 49.85278 9.25311 8989 ft 298 kts 328°
2026-05-04 15:48 49.87091 9.23762 8989 ft 298 kts 328°
2026-05-04 15:48 49.88910 9.22209 8994 ft 298 kts 328°
2026-05-04 15:48 49.92540 9.19110 8984 ft 298 kts 328°
2026-05-04 15:49 49.94359 9.17558 8955 ft 299 kts 328°
2026-05-04 15:49 49.96177 9.16004 8819 ft 298 kts 328°
2026-05-04 15:49 49.97987 9.14452 8446 ft 298 kts 328°
2026-05-04 15:49 49.99804 9.12892 8034 ft 298 kts 328°
2026-05-04 15:50 50.01595 9.11352 7671 ft 297 kts 328°
2026-05-04 15:50 50.03427 9.09776 7250 ft 297 kts 328°
2026-05-04 15:50 50.05190 9.08248 6963 ft 292 kts 326°
2026-05-04 15:50 50.06769 9.06307 6610 ft 288 kts 310°
2026-05-04 15:51 50.07969 9.03863 6262 ft 283 kts 300°
2026-05-04 15:51 50.09057 9.01329 5959 ft 277 kts 301°
2026-05-04 15:51 50.10093 8.98938 5816 ft 255 kts 301°
2026-05-04 15:51 50.11057 8.96717 5488 ft 245 kts 300°
2026-05-04 15:52 50.11552 8.95141 5135 ft 243 kts 285°
2026-05-04 15:52 50.11784 8.92640 4848 ft 226 kts 265°
2026-05-04 15:52 50.11485 8.90295 4565 ft 219 kts 249°
2026-05-04 15:52 50.10964 8.88090 4274 ft 215 kts 249°
2026-05-04 15:53 50.10454 8.85916 3983 ft 213 kts 250°
2026-05-04 15:53 50.09947 8.83760 3706 ft 212 kts 250°
2026-05-04 15:53 50.09444 8.81625 3441 ft 206 kts 251°
2026-05-04 15:53 50.08970 8.79615 3170 ft 192 kts 252°
2026-05-04 15:54 50.08520 8.77708 2919 ft 185 kts 252°
2026-05-04 15:54 50.08076 8.75828 2672 ft 182 kts 253°
2026-05-04 15:54 50.07645 8.74005 2424 ft 176 kts 252°
2026-05-04 15:54 50.07230 8.72251 2195 ft 168 kts 253°
2026-05-04 15:55 50.06838 8.70598 1982 ft 158 kts 251°
2026-05-04 15:55 50.06470 8.69045 1784 ft 149 kts 252°
2026-05-04 15:55 50.06116 8.67548 1583 ft 146 kts 251°
2026-05-04 15:55 50.05768 8.66082 1390 ft 143 kts 251°
2026-05-04 15:56 50.05421 8.64626 1184 ft 144 kts 250°
2026-05-04 15:56 50.05082 8.63165 1044 ft 142 kts 252°
2026-05-04 15:56 50.04733 8.61707 865 ft 145 kts 253°
2026-05-04 15:56 50.04380 8.60248 638 ft 142 kts 252°
2026-05-04 15:57 50.04040 8.58825 438 ft 142 kts 253°
2026-05-04 15:57 50.03716 8.57428 359 ft 125 kts 249°
2026-05-04 15:57 50.03485 8.56466 355 ft 50 kts 249°
2026-05-04 15:57 50.03437 8.56104 356 ft 25 kts 270°
2026-05-04 15:58 50.03455 8.55895 347 ft 17 kts 279°
2026-05-04 15:58 50.03473 8.55740 349 ft 13 kts 290°
2026-05-04 15:58 50.03530 8.55702 349 ft 8 kts 21°
2026-05-04 15:58 50.03562 8.55765 349 ft 8 kts 66°
2026-05-04 15:59 50.03595 8.55903 355 ft 20 kts 70°
2026-05-04 15:59 50.03655 8.56154 359 ft 26 kts 69°
2026-05-04 15:59 50.03717 8.56413 357 ft 25 kts 70°
2026-05-04 15:59 50.03777 8.56664 356 ft 24 kts 70°
2026-05-04 16:00 50.03834 8.56901 355 ft 23 kts 70°
2026-05-04 16:00 50.03895 8.57158 365 ft 28 kts 70°
2026-05-04 16:00 50.03959 8.57428 368 ft 25 kts 69°
2026-05-04 16:00 50.04023 8.57695 366 ft 28 kts 70°
2026-05-04 16:01 50.04091 8.57976 370 ft 27 kts 70°
2026-05-04 16:01 50.04156 8.58246 373 ft 26 kts 69°
2026-05-04 16:01 50.04217 8.58502 371 ft 25 kts 70°
2026-05-04 16:01 50.04276 8.58750 371 ft 25 kts 70°
2026-05-04 16:02 50.04333 8.58985 376 ft 22 kts 69°
2026-05-04 16:02 50.04386 8.59203 376 ft 21 kts 70°
2026-05-04 16:02 50.04471 8.59469 375 ft 10 kts 12°
2026-05-04 16:03 50.04539 8.59469 374 ft 9 kts 358°
2026-05-04 16:03 50.04551 8.59468 374 ft 0 kts 358°
2026-05-04 16:04 50.04573 8.59467 373 ft 10 kts 358°
2026-05-04 16:04 50.04667 8.59454 372 ft 13 kts 349°
2026-05-04 16:05 50.04743 8.59417 372 ft 10 kts 340°
2026-05-04 16:05 50.04799 8.59385 371 ft 9 kts 338°
2026-05-04 16:05 50.04842 8.59259 373 ft 3 kts 258°
2026-05-04 16:06 50.04856 8.59223 369 ft 5 kts 329°
2026-05-04 16:06 50.04920 8.59186 367 ft 0 kts 340°